Location: Grambois
(43.7619°N, 5.5873°E)
Time: 08:45:41
(UTC+00:00)

Cosmos 864 Rocket - Pass Details

Date: 07 June 2020
Orbit: 954 x 990 km, 82.9° (Epoch: 14 July)

Event Time Altitude Azimuth Distance (km) Brightness Sun altitude
Exits shadow 02:45:06 - 188° (S) 2,955 6.5 -10.7°
Reaches altitude 10° 02:45:50 10° 189° (S) 2,674 6.3 -10.6°
Maximum altitude 02:51:58 84° 277° (W) 967 4.5 -9.8°
Drops below altitude 10° 02:58:10 10° 7° (N) 2,702 7.6 -9.0°
Sets 03:00:41 0° 8° (N) 3,656 8.4 -8.7°
